Previsão horária em Almaguer

Hoje, 22 Janeiro, Sexta-feira

Tempo Temperatura Precipitação Vento Pressão Humidade
00:00 +13°C° 1.1 mm 0 m/s 586 mmHg 97%
01:00 +13°C° 1.1 mm 0 m/s 585 mmHg 97%
02:00 +13°C° 0.2 mm 0 m/s 585 mmHg 97%
03:00 +12°C° 0.2 mm 0 m/s 585 mmHg 97%
04:00 +12°C° 0.2 mm 0 m/s 585 mmHg 96%
05:00 +12°C° 0.1 mm 0 m/s 585 mmHg 96%
06:00 +13°C° 0.1 mm 1 m/s 585 mmHg 96%
07:00 +13°C° 0.1 mm 1 m/s 585 mmHg 95%
08:00 +14°C° 0.2 mm 1 m/s 586 mmHg 93%
09:00 +15°C° 0.2 mm 1 m/s 587 mmHg 91%
10:00 +18°C° 0.2 mm 1 m/s 588 mmHg 89%
11:00 +18°C° 0.8 mm 1 m/s 588 mmHg 88%
12:00 +18°C° 0.8 mm 1 m/s 588 mmHg 87%
13:00 +19°C° 0.8 mm 1 m/s 587 mmHg 86%
14:00 +18°C° 1.4 mm 1 m/s 587 mmHg 89%
15:00 +16°C° 1.4 mm 1 m/s 586 mmHg 92%
16:00 +15°C° 1.4 mm 0 m/s 585 mmHg 94%
17:00 +14°C° 1 mm 0 m/s 586 mmHg 95%
18:00 +14°C° 1 mm 0 m/s 586 mmHg 96%
19:00 +13°C° 1 mm 0 m/s 586 mmHg 97%
20:00 +13°C° 0.4 mm 0 m/s 586 mmHg 97%
21:00 +13°C° 0.4 mm 0 m/s 586 mmHg 97%
22:00 +13°C° 0.4 mm 0 m/s 587 mmHg 97%
23:00 +12°C° 0.2 mm 0 m/s 586 mmHg 97%

Amanhã, 23 Janeiro, Sábado

Tempo Temperatura Precipitação Vento Pressão Humidade
00:00 +12°C° 0.2 mm 0 m/s 586 mmHg 97%
01:00 +12°C° 0.2 mm 0 m/s 586 mmHg 97%
02:00 +12°C° 0.1 mm 0 m/s 586 mmHg 97%
03:00 +12°C° 0.1 mm 0 m/s 585 mmHg 97%
04:00 +12°C° 0.1 mm 0 m/s 585 mmHg 97%
05:00 +12°C° 0 mm 0 m/s 585 mmHg 96%
06:00 +13°C° 0 mm 1 m/s 586 mmHg 96%
07:00 +13°C° 0 mm 1 m/s 586 mmHg 96%
08:00 +14°C° 0.2 mm 1 m/s 587 mmHg 92%
09:00 +16°C° 0.2 mm 1 m/s 588 mmHg 89%
10:00 +18°C° 0.2 mm 1 m/s 588 mmHg 85%
11:00 +19°C° 0.8 mm 1 m/s 588 mmHg 84%
12:00 +20°C° 0.8 mm 1 m/s 588 mmHg 82%
13:00 +20°C° 0.8 mm 1 m/s 588 mmHg 80%
14:00 +20°C° 1.4 mm 1 m/s 587 mmHg 83%
15:00 +19°C° 1.4 mm 1 m/s 586 mmHg 86%
16:00 +17°C° 1.4 mm 0 m/s 586 mmHg 89%
17:00 +16°C° 1.1 mm 0 m/s 586 mmHg 90%
18:00 +16°C° 1.1 mm 1 m/s 586 mmHg 92%
19:00 +15°C° 1.1 mm 1 m/s 586 mmHg 94%
20:00 +14°C° 0.6 mm 1 m/s 586 mmHg 94%
21:00 +14°C° 0.6 mm 1 m/s 586 mmHg 94%
22:00 +14°C° 0.6 mm 1 m/s 586 mmHg 94%
23:00 +14°C° 0.2 mm 1 m/s 586 mmHg 94%

Depois de amanhã, 24 Janeiro, Domingo

Tempo Temperatura Precipitação Vento Pressão Humidade
00:00 +13°C° 0.2 mm 1 m/s 586 mmHg 94%
01:00 +13°C° 0.2 mm 1 m/s 585 mmHg 94%
02:00 +13°C° 0.1 mm 1 m/s 585 mmHg 94%
03:00 +13°C° 0.1 mm 1 m/s 585 mmHg 95%
04:00 +13°C° 0.1 mm 1 m/s 585 mmHg 95%
05:00 +13°C° 0 mm 1 m/s 585 mmHg 94%
06:00 +13°C° 0 mm 1 m/s 585 mmHg 94%
07:00 +13°C° 0 mm 1 m/s 586 mmHg 94%
08:00 +15°C° 0.1 mm 1 m/s 586 mmHg 89%
09:00 +16°C° 0.1 mm 1 m/s 587 mmHg 85%
10:00 +19°C° 0.1 mm 1 m/s 588 mmHg 80%
11:00 +19°C° 0.5 mm 1 m/s 588 mmHg 80%
12:00 +20°C° 0.5 mm 1 m/s 587 mmHg 80%
13:00 +20°C° 0.5 mm 1 m/s 587 mmHg 80%
14:00 +20°C° 1.3 mm 1 m/s 587 mmHg 81%
15:00 +20°C° 1.3 mm 1 m/s 586 mmHg 83%
16:00 +19°C° 1.3 mm 1 m/s 585 mmHg 85%
17:00 +18°C° 1.1 mm 1 m/s 585 mmHg 88%
18:00 +16°C° 1.1 mm 1 m/s 585 mmHg 91%
19:00 +15°C° 1.1 mm 1 m/s 585 mmHg 94%
20:00 +14°C° 0.3 mm 1 m/s 585 mmHg 93%
21:00 +14°C° 0.3 mm 1 m/s 586 mmHg 93%
22:00 +14°C° 0.3 mm 1 m/s 586 mmHg 93%
23:00 +14°C° 0 mm 1 m/s 585 mmHg 93%

25 Janeiro, Segunda-feira

Tempo Temperatura Precipitação Vento Pressão Humidade
00:00 +13°C° 0 mm 1 m/s 585 mmHg 94%
01:00 +13°C° 0 mm 1 m/s 585 mmHg 94%
02:00 +13°C° 0.1 mm 1 m/s 584 mmHg 94%
03:00 +13°C° 0.1 mm 1 m/s 584 mmHg 94%
04:00 +13°C° 0.1 mm 1 m/s 584 mmHg 94%
05:00 +13°C° 0.2 mm 1 m/s 584 mmHg 94%
06:00 +13°C° 0.2 mm 1 m/s 585 mmHg 93%
07:00 +13°C° 0.2 mm 1 m/s 585 mmHg 93%
08:00 +15°C° 0.1 mm 1 m/s 586 mmHg 90%
09:00 +16°C° 0.1 mm 1 m/s 587 mmHg 86%
10:00 +18°C° 0.1 mm 1 m/s 588 mmHg 83%
11:00 +19°C° 0.3 mm 1 m/s 588 mmHg 79%
12:00 +21°C° 0.3 mm 1 m/s 588 mmHg 74%
13:00 +22°C° 0.3 mm 1 m/s 588 mmHg 70%
14:00 +21°C° 1.2 mm 1 m/s 587 mmHg 73%
15:00 +21°C° 1.2 mm 1 m/s 586 mmHg 77%
16:00 +20°C° 1.2 mm 1 m/s 585 mmHg 80%
17:00 +19°C° 1.4 mm 1 m/s 585 mmHg 85%
18:00 +16°C° 1.4 mm 1 m/s 585 mmHg 89%
19:00 +15°C° 1.4 mm 1 m/s 585 mmHg 94%
20:00 +15°C° 0.5 mm 1 m/s 585 mmHg 93%
21:00 +14°C° 0.5 mm 1 m/s 585 mmHg 93%
22:00 +14°C° 0.5 mm 1 m/s 586 mmHg 92%
23:00 +14°C° 0.1 mm 1 m/s 585 mmHg 93%

26 Janeiro, Terça-feira

Tempo Temperatura Precipitação Vento Pressão Humidade
00:00 +14°C° 0.1 mm 1 m/s 585 mmHg 93%
01:00 +13°C° 0.1 mm 1 m/s 585 mmHg 93%
02:00 +13°C° 0.2 mm 1 m/s 585 mmHg 94%
03:00 +13°C° 0.2 mm 1 m/s 585 mmHg 94%
04:00 +13°C° 0.2 mm 1 m/s 584 mmHg 94%
05:00 +13°C° 0 mm 1 m/s 585 mmHg 93%
06:00 +13°C° 0 mm 1 m/s 585 mmHg 93%
07:00 +13°C° 0 mm 1 m/s 585 mmHg 92%
08:00 +15°C° 0.1 mm 1 m/s 586 mmHg 88%
09:00 +18°C° 0.1 mm 1 m/s 587 mmHg 84%
10:00 +19°C° 0.1 mm 1 m/s 588 mmHg 80%
11:00 +20°C° 0.7 mm 1 m/s 588 mmHg 80%
12:00 +20°C° 0.7 mm 1 m/s 588 mmHg 79%
13:00 +21°C° 0.7 mm 1 m/s 587 mmHg 79%
14:00 +20°C° 2.1 mm 1 m/s 587 mmHg 82%
15:00 +20°C° 2.1 mm 1 m/s 586 mmHg 85%
16:00 +19°C° 2.1 mm 1 m/s 585 mmHg 88%
17:00 +16°C° 1.4 mm 0 m/s 585 mmHg 91%
18:00 +15°C° 1.4 mm 0 m/s 585 mmHg 93%
19:00 +14°C° 1.4 mm 0 m/s 585 mmHg 96%
20:00 +14°C° 0.7 mm 0 m/s 585 mmHg 95%
21:00 +13°C° 0.7 mm 0 m/s 586 mmHg 95%
22:00 +14°C° 0.7 mm 1 m/s 586 mmHg 95%
23:00 +14°C° 0.4 mm 1 m/s 586 mmHg 95%

27 Janeiro, Quarta-feira

Tempo Temperatura Precipitação Vento Pressão Humidade
00:00 +14°C° 0.4 mm 1 m/s 586 mmHg 94%
01:00 +14°C° 0.4 mm 1 m/s 585 mmHg 94%
02:00 +13°C° 0.2 mm 1 m/s 585 mmHg 94%
03:00 +13°C° 0.2 mm 1 m/s 585 mmHg 94%
04:00 +13°C° 0.2 mm 1 m/s 584 mmHg 94%
05:00 +13°C° 0 mm 1 m/s 585 mmHg 94%
06:00 +13°C° 0 mm 1 m/s 585 mmHg 93%
07:00 +13°C° 0 mm 1 m/s 586 mmHg 93%
08:00 +15°C° 0 mm 1 m/s 587 mmHg 86%
09:00 +18°C° 0 mm 1 m/s 588 mmHg 79%
10:00 +20°C° 0 mm 1 m/s 589 mmHg 72%
11:00 +21°C° 0.4 mm 1 m/s 589 mmHg 72%
12:00 +21°C° 0.4 mm 1 m/s 589 mmHg 71%
13:00 +21°C° 0.4 mm 1 m/s 588 mmHg 71%
14:00 +21°C° 1.3 mm 1 m/s 587 mmHg 75%
15:00 +21°C° 1.3 mm 1 m/s 587 mmHg 78%
16:00 +20°C° 1.3 mm 1 m/s 586 mmHg 82%
17:00 +19°C° 1.2 mm 1 m/s 586 mmHg 86%
18:00 +16°C° 1.2 mm 1 m/s 585 mmHg 90%
19:00 +15°C° 1.2 mm 1 m/s 585 mmHg 95%
20:00 +14°C° 0.4 mm 1 m/s 585 mmHg 94%
21:00 +14°C° 0.4 mm 1 m/s 586 mmHg 94%
22:00 +14°C° 0.4 mm 1 m/s 586 mmHg 94%
23:00 +13°C° 0.1 mm 1 m/s 586 mmHg 94%
Mostrar mais

Necessitamos do seu Consentimento

A Meteoprog e os seus Fornecedores de Serviços podem armazenar e aceder a dados pessoais como cookies, identificadores do dispositivo ou outras tecnologias semelhantes existentes no seu dispositivo e processar estes dados para personalizar conteúdos e anúncios, assim como funcionalidades nas redes sociais e análise de tráfego.

  • Armazenar e/ou aceder a informações no seu dispositivo

    Os cookies, identificadores do dispositivo ou outras informações podem ser armazenados ou acedidos no seu dispositivo, para os fins acima indicados.

  • Anúncios e conteúdos personalizados, medição de anúncios e conteúdos, dados sobre o público-alvo e desenvolvimento de produtos

    Os anúncios e os conteúdos podem ser personalizados com base num perfil. Podem ser adicionados dados adicionais para uma maior personalização dos anúncios e dos conteúdos. A eficácia dos anúncios e dos conteúdos pode ser medida. Podem ser obtidas informações sobre o público que visualizou os anúncios e os conteúdos. Estes dados podem ser usados para desenvolver ou melhorar sistemas, softwares ou a experiência do utilizador.

Ao clicar em "Eu concordo”, permitirá o uso de cookies, identificadores do dispositivo e web beacons mencionados ou outras tecnologias semelhantes. As configurações do navegador do seu dispositivo podem ser alteradas.

Para certos fins, podem ser invocados interesses legítimos ao invés de consentimento. Pode ler mais informação sobre este assunto na nossa Política de Privacidade e Cookies.